EHI
29 41 55 60 61 61 60 57 48 34 19 8 2 0 0 0 0 0 0 0 0 0 0 0 0 0 0 0 0 0 0 0 0 0 0 0 0 0 0 0 0 0 0
21 33 47 59 66 67 63 59 50 36 22 11 4 1 0 0 0 0 0 0 0 0 0 0 0 0 0 0 0 0 0 0 0 0 0 0 0 0 0 0 0 0 0
10 17 30 44 55 56 50 43 36 26 17 11 5 1 0 0 0 0 0 0 0 0 0 0 0 0 0 0 0 0 0 0 0 0 0 0 0 0 0 0 0 0 0
3 5 12 23 30 30 24 18 13 10 7 6 3 1 0 0 0 0 0 0 0 0 0 1 0 0 0 0 0 0 0 0 0 0 0 0 0 0 0 0 0 0 0
1 2 6 13 16 13 9 5 2 1 2 2 1 0 0 0 0 0 0 0 0 0 0 0 0 0 0 0 0 0 0 0 0 0 0 0 0 0 0 0 0 0 0
1 2 6 11 11 6 3 2 1 0 0 0 0 0 0 0 0 0 0 0 0 0 0 0 0 0 0 0 0 0 0 0 0 0 0 0 0 0 0 0 0 0 0
0 2 5 9 7 3 1 1 0 0 0 0 0 0 0 0 0 0 0 0 0 0 0 0 0 0 0 0 0 0 0 0 0 0 0 0 0 0 0 0 0 0 0
0 1 3 3 2 0 0 0 0 0 0 0 0 0 0 0 0 0 0 0 0 0 0 0 0 0 0 0 0 0 0 0 0 0 0 0 0 0 0 0 0 0 0
0 0 1 0 0 0 0 0 0 0 0 0 0 0 0 0 0 0 0 0 0 0 0 0 0 0 0 0 0 0 0 0 0 0 0 0 0 0 0 0 0 0 0
0 0 0 0 0 0 0 0 0 0 0 0 0 0 0 0 0 0 0 0 0 0 0 0 0 0 0 0 0 0 0 0 0 0 0 0 0 0 0 0 0 0 0
0 0 0 0 0 0 0 0 0 0 0 0 0 0 0 0 0 0 0 0 0 0 0 0 0 0 0 0 0 0 0 0 0 0 0 0 0 0 0 0 0 0 0
0 0 0 0 0 0 0 0 0 0 0 0 0 0 0 0 0 0 0 0 0 0 0 0 0 0 0 0 0 0 0 0 0 0 0 0 0 0 0 0 0 0 0
0 0 0 0 0 0 0 0 0 0 0 0 0 0 0 0 0 0 0 0 0 0 0 0 0 0 0 0 0 0 0 0 0 0 0 0 0 0 0 0 0 0 0
0 0 0 0 0 0 0 0 0 0 0 0 0 0 0 0 0 0 0 0 0 0 0 0 0 0 0 0 0 0 0 0 0 0 0 0 0 0 0 0 0 0 0
0 0 0 0 0 0 0 0 0 0 0 0 0 0 0 0 0 0 0 0 0 0 0 0 0 0 0 0 0 0 0 0 0 0 0 0 0 0 0 0 0 0 0
0 0 0 0 0 0 0 0 0 0 0 0 0 0 0 0 0 0 0 0 0 0 0 0 0 0 0 0 0 0 0 0 0 0 0 0 0 0 0 0 0 0 0
0 0 0 0 0 0 0 0 0 0 0 0 0 0 0 0 0 0 0 0 0 0 0 0 0 0 0 0 0 0 0 0 0 0 0 0 0 0 0 0 0 0 0
0 0 0 0 0 0 0 0 0 0 0 0 0 0 0 0 0 0 0 0 0 0 0 0 0 0 0 0 0 0 0 0 0 0 0 0 0 0 0 0 0 0 0
0 0 0 0 0 0 0 0 0 0 0 0 0 0 0 0 0 0 0 0 0 0 0 0 0 0 0 0 0 0 0 0 0 0 0 0 0 0 0 0 0 0 0
0 0 0 0 0 0 0 0 0 0 0 0 0 0 0 0 0 0 0 0 0 0 0 0 0 0 0 0 0 0 0 0 0 0 0 0 0 0 0 0 0 0 0
0 0 0 0 0 0 0 0 0 0 0 0 0 0 0 0 0 0 0 0 0 0 0 0 0 0 0 0 0 0 0 0 0 0 0 0 0 0 0 0 0 0 0
0 0 0 0 0 0 0 0 0 0 0 0 0 0 0 0 0 0 0 0 0 0 0 0 0 0 0 0 0 0 0 0 0 0 0 0 0 0 0 0 0 0 0
0 0 0 0 0 0 0 0 0 0 0 0 0 0 0 0 0 0 0 0 0 0 0 0 0 0 0 0 0 0 0 0 0 0 0 0 0 0 0 0 0 0 0
0 0 0 0 0 0 0 0 0 0 0 0 0 0 0 0 0 0 0 0 0 0 0 0 0 0 0 0 0 0 0 0 0 0 0 0 0 0 0 0 0 0 0
0 0 0 0 0 0 0 0 0 0 0 0 0 0 0 0 0 0 0 0 0 0 0 0 0 0 0 0 0 0 0 0 0 0 0 0 0 0 0 0 0 0 0
0 0 0 0 0 0 0 0 0 0 0 0 0 0 0 0 0 0 0 0 0 0 0 0 0 0 0 0 0 0 0 0 0 0 0 0 0 0 0 0 0 0 0
Wind_Speed
4 5 8 10 9 9 9 10 9 8 7 4 4 3 3 2 2 3 4 5 5 5 5 3 4 4 4 4 3 2 2 2 1 1 3 3 3 3 3 2 3 4 5
2 3 5 6 7 8 8 8 8 8 7 4 3 3 3 2 2 2 2 4 5 5 5 5 4 4 4 4 4 3 2 2 2 1 1 4 4 3 2 2 2 3 3
6 5 5 4 4 4 5 4 4 4 4 5 3 2 2 1 0 1 2 3 4 5 5 5 5 5 4 4 5 5 4 3 2 2 2 1 3 4 3 2 3 3 3
5 6 6 6 5 3 2 2 2 2 2 2 3 3 2 1 1 1 2 4 3 4 5 5 5 5 4 5 5 5 4 3 3 2 3 3 2 1 4 3 2 3 3
4 3 5 5 5 6 5 5 4 4 3 3 2 2 1 1 1 2 3 4 3 3 3 3 4 4 3 4 4 4 4 4 4 3 3 3 3 3 3 4 5 3 2
4 3 4 6 6 6 6 6 6 4 3 3 3 3 3 3 3 3 3 3 1 1 2 1 1 1 2 2 3 3 5 4 4 4 4 3 3 4 4 4 4 3 3
7 6 5 6 5 6 5 5 5 4 2 2 3 3 4 3 3 3 3 2 1 0 2 2 1 0 1 2 2 3 5 5 5 5 5 4 4 3 3 3 2 2 2
9 8 7 6 6 5 4 4 4 3 2 2 2 2 2 2 1 1 2 2 1 1 1 1 1 2 2 3 3 4 5 5 5 6 6 4 4 4 4 3 3 1 2
10 10 9 8 6 4 3 3 3 3 3 2 3 3 3 3 3 3 3 2 2 0 1 2 2 2 2 3 3 4 5 5 6 6 7 5 4 4 4 3 3 3 1
9 9 9 9 7 5 4 3 3 3 3 3 3 2 3 3 3 3 3 2 2 2 2 2 2 3 3 3 3 4 5 5 5 5 6 6 4 4 4 4 3 3 3
7 7 7 7 6 6 5 3 2 3 3 3 3 3 2 2 3 3 3 2 2 3 3 3 3 3 3 3 3 4 5 5 5 4 6 6 5 5 4 4 4 3 3
5 5 6 6 7 6 5 4 3 3 3 2 2 2 2 2 3 3 3 2 2 3 3 2 3 3 3 3 4 4 5 4 4 3 4 4 4 6 5 4 5 4 4
5 5 5 5 6 6 5 4 3 4 4 4 3 3 2 2 2 2 2 2 2 3 3 3 3 3 3 3 4 4 4 4 4 3 1 1 3 4 4 5 4 3 3
5 5 5 5 5 5 4 4 3 3 3 3 4 4 3 2 1 1 2 2 3 3 3 3 3 3 3 3 3 2 3 3 5 5 4 3 1 1 2 3 3 3 3
6 6 6 5 5 5 4 3 2 2 3 4 5 3 3 3 3 3 3 3 3 4 3 4 4 4 3 4 4 4 4 5 5 6 6 6 7 6 3 1 1 2 2
6 7 7 7 6 5 3 2 2 2 4 5 5 4 4 4 4 3 3 3 4 4 4 5 5 6 5 6 8 6 5 5 5 5 5 5 6 7 10 11 9 6 3
5 6 6 7 6 5 2 0 1 2 4 5 5 5 4 5 4 4 4 4 4 3 4 4 5 5 5 7 8 9 6 6 6 6 6 5 5 5 5 8 10 11 11
4 5 6 6 5 3 1 1 2 2 3 4 4 4 4 4 4 4 5 4 3 3 3 3 4 4 5 5 6 7 6 6 6 6 5 5 6 5 5 6 7 8 8
3 4 5 6 4 2 1 2 2 2 3 3 3 3 3 3 3 3 3 2 3 3 3 3 3 3 4 5 2 4 3 4 5 4 5 5 6 8 8 7 7 7 6
3 4 5 4 4 2 0 2 2 2 2 2 2 1 1 1 2 2 1 1 1 2 3 3 3 3 3 5 2 3 2 3 3 3 4 7 6 7 7 6 6 6 5
3 3 4 4 5 3 1 3 3 2 2 2 2 2 2 2 2 2 1 1 1 1 1 1 2 3 4 4 3 1 1 2 2 2 2 3 6 5 6 5 4 3 2
2 2 3 4 4 4 2 2 2 1 1 1 2 3 3 3 3 3 2 0 1 1 2 1 0 1 3 4 4 4 2 1 1 1 1 2 5 5 5 4 3 4 3
1 1 2 3 4 4 3 3 3 3 2 2 2 2 2 3 3 3 3 2 1 1 1 1 0 1 2 3 6 7 7 3 1 0 2 3 5 4 4 6 5 3 2
1 1 2 2 3 3 3 3 2 3 3 3 2 2 2 2 2 2 2 2 2 2 1 1 1 2 2 3 3 3 4 5 3 3 4 5 6 4 4 4 3 2 1
1 1 1 1 2 2 2 1 1 2 2 2 2 2 2 2 2 2 2 2 2 2 1 1 1 2 2 2 3 3 3 4 4 3 2 2 3 3 3 3 3 2 1
1 1 1 1 2 2 3 2 1 1 1 1 1 1 1 1 2 1 1 2 2 3 4 2 2 2 2 2 5 6 6 5 5 2 2 2 2 2 2 3 3 3 2
Wind_Direction
172 178 187 188 185 184 185 184 180 174 162 157 164 168 186 188 194 215 228 226 219 210 199 202 210 201 213 228 224 225 236 243 194 312 315 304 272 259 255 275 302 323 333
214 220 213 202 194 191 191 189 188 180 177 171 160 154 155 168 195 216 239 233 223 214 206 207 210 206 214 230 221 207 224 244 180 164 334 326 332 325 275 276 298 324 336
222 215 212 205 188 194 203 200 197 187 177 156 134 114 99 96 135 262 267 253 238 226 212 209 208 209 207 220 219 204 210 232 218 183 183 228 288 314 311 290 301 322 340
244 205 194 186 177 160 129 128 137 133 122 130 129 140 150 193 248 276 284 290 278 249 227 213 206 211 212 221 223 211 210 211 231 206 216 219 195 251 313 311 301 309 328
289 206 182 161 139 130 124 120 112 100 86 72 87 110 124 239 280 296 298 300 299 280 250 222 210 215 216 225 228 221 214 209 216 205 204 215 208 210 226 287 312 318 309
9 77 99 114 118 121 122 125 124 122 124 134 156 171 198 225 257 269 272 270 265 354 21 37 148 193 206 224 233 233 230 223 219 208 202 197 191 196 200 239 277 300 303
28 55 79 97 106 109 112 121 125 123 136 162 181 185 194 202 218 229 233 222 210 73 29 41 41 27 252 251 249 247 247 234 223 216 214 216 211 186 182 199 244 282 303
36 43 49 63 77 81 88 95 107 114 129 150 155 150 137 137 133 126 140 142 130 112 0 339 288 266 265 262 252 250 251 240 232 225 219 217 213 197 188 185 182 247 308
34 34 32 34 44 57 67 79 91 91 90 97 88 76 83 91 91 90 96 99 94 64 353 322 320 316 307 291 277 257 255 246 236 229 223 218 208 200 203 192 186 176 233
30 26 22 20 19 17 31 62 84 95 91 83 74 70 66 72 82 86 83 77 57 33 21 2 344 327 317 308 293 276 263 252 244 231 224 218 204 202 203 198 198 186 180
24 18 13 12 15 16 24 35 65 91 93 88 80 75 64 65 70 68 58 50 42 34 29 6 343 326 315 315 302 286 282 271 263 244 230 228 209 204 204 198 194 192 183
22 13 7 8 13 15 18 30 44 65 61 58 69 76 72 68 63 55 47 52 49 33 26 15 1 345 338 335 327 316 317 314 306 287 250 240 218 211 203 197 200 199 197
16 10 8 5 2 3 7 22 40 50 45 40 45 51 57 64 64 58 60 63 62 46 33 28 14 356 347 340 335 330 334 344 351 352 334 253 202 200 197 198 198 195 192
10 6 358 352 350 351 355 10 34 52 66 59 50 40 33 43 62 57 55 52 56 49 30 21 14 5 359 354 350 358 12 29 33 30 32 34 53 167 189 195 194 180 175
11 5 353 342 339 340 344 4 25 57 80 77 62 39 30 42 54 56 58 53 48 41 27 28 24 21 23 28 46 54 51 50 47 36 28 30 44 52 64 97 130 148 147
0 355 348 340 333 327 327 355 28 59 88 87 74 57 50 47 45 57 65 60 48 33 28 25 22 26 27 53 64 70 63 54 48 37 24 27 35 54 64 69 71 74 93
343 341 335 328 321 312 300 318 71 74 83 84 76 66 59 53 40 48 53 41 31 22 18 15 16 19 20 56 72 73 73 63 51 39 30 33 24 40 65 67 66 62 56
326 328 326 325 319 313 299 137 110 98 93 85 73 59 51 53 45 45 43 29 18 10 356 359 5 6 11 47 87 83 72 66 53 43 35 39 32 33 60 66 61 51 39
301 309 315 314 319 323 285 146 124 109 98 89 77 64 50 45 45 48 44 30 22 2 344 348 353 354 351 8 89 92 73 64 51 38 37 43 43 44 63 68 63 51 30
307 317 327 335 350 349 126 152 144 127 112 89 60 53 59 61 51 23 3 19 27 350 335 345 346 346 343 353 27 106 86 66 43 31 34 46 54 52 57 63 62 52 19
315 333 350 1 358 356 101 153 149 156 156 114 66 46 45 52 32 334 283 247 239 252 281 350 8 1 348 346 356 180 102 98 60 33 20 20 36 53 58 63 66 64 54
326 356 7 6 3 9 42 100 98 70 108 100 75 47 30 27 20 357 338 315 193 213 211 190 151 12 353 349 348 344 297 203 141 59 1 345 6 34 45 44 55 94 82
258 17 31 13 11 15 36 64 37 27 39 44 52 52 53 47 37 25 9 1 340 244 251 244 172 51 14 25 21 17 10 343 300 332 351 2 16 32 37 36 46 66 66
153 101 64 34 14 15 35 44 28 30 38 30 27 42 42 45 43 39 22 1 340 322 318 341 20 44 30 24 38 32 27 23 12 0 7 35 46 44 22 17 25 34 44
110 99 82 9 337 347 7 12 26 53 47 23 14 38 63 65 64 60 43 19 359 334 319 345 27 62 57 7 55 77 46 21 360 351 1 19 22 14 7 0 357 357 10
201 224 262 277 302 326 327 330 357 54 92 54 21 26 46 61 78 75 47 52 71 52 66 92 115 93 103 111 85 83 74 45 14 23 4 358 3 354 345 342 339 332 331